This demonstration page uses our WeatherBlox Daily Observations layout. Learn more.

Left ArrowRight Arrow

Hourly Observations for October 1, 2019

Temp ( °F °C ) Dew Point ( °F °C ) Humidity (%) Winds ( mph kmh ) Pressure ( in mb ) Visibility ( mi km ) Precip ( " mm )
12:53 am 00:53 Clear 72 22.2 68 20 87 87 Calm 30.07 1018 10 16 0.00 0.00
1:53 am 01:53 Clear 73 22.8 67 19.4 81 81 Calm 30.07 1018 10 16 0.00 0.00
2:53 am 02:53 Clear 72 22.2 68 20 87 87 Calm 30.06 1018 10 16 0.00 0.00
3:53 am 03:53 Clear with Mist and Fog 72 22.2 68 20 87 87 Calm 30.06 1018 5 8 0.00 0.00
4:53 am 04:53 Clear 72 22.2 68 20 87 87 Calm 30.06 1018 10 16 0.00 0.00
5:53 am 05:53 Clear 72 22.2 68 20 87 87 NE 5 7 30.07 1018 10 16 0.00 0.00
6:53 am 06:53 Clear 72 22.2 68 20 87 87 NE 5 7 30.09 1019 10 16 0.00 0.00
7:53 am 07:53 Sunny 71 21.7 68 20 90 90 Calm 30.11 1020 10 16 0.00 0.00
8:53 am 08:53 Sunny 76 24.4 69 20.6 79 79 ENE 3 6 30.12 1020 10 16 0.00 0.00
9:53 am 09:53 Sunny 80 26.7 69 20.6 69 69 Calm 30.13 1020 10 16 0.00 0.00
10:53 am 10:53 Sunny 83 28.3 67 19.4 59 59 VRB 3 6 30.14 1021 10 16 0.00 0.00
11:53 am 11:53 Sunny 85 29.4 67 19.4 55 55 VRB 3 6 30.13 1020 10 16 0.00 0.00
12:53 pm 12:53 Sunny 88 31.1 68 20 52 52 N 3 6 30.11 1020 10 16 0.00 0.00
1:53 pm 13:53 Sunny 90 32.2 67 19.4 47 47 VRB 3 6 30.08 1019 10 16 0.00 0.00
2:53 pm 14:53 Partly Cloudy 92 33.3 67 19.4 44 44 Calm 30.05 1018 10 16 0.00 0.00
3:53 pm 15:53 Mostly Sunny 92 33.3 66 18.9 43 43 E 7 11 30.03 1017 10 16 0.00 0.00
4:53 pm 16:53 Mostly Cloudy 93 33.9 65 18.3 40 40 ENE 3 6 30.01 1016 10 16 0.00 0.00
5:53 pm 17:53 Sunny 93 33.9 66 18.9 41 41 N 3 6 30.01 1016 10 16 0.00 0.00
6:53 pm 18:53 Sunny 89 31.7 68 20 50 50 NE 3 6 30.01 1016 10 16 0.00 0.00
7:53 pm 19:53 Partly Cloudy 84 28.9 69 20.6 61 61 NW 3 6 30.02 1017 10 16 0.00 0.00
8:53 pm 20:53 Cloudy 83 28.3 68 20 61 61 Calm 30.02 1017 10 16 0.00 0.00
9:53 pm 21:53 Clear 79 26.1 70 21.1 74 74 Calm 30.03 1017 10 16 0.00 0.00
10:53 pm 22:53 Clear 77 25 71 21.7 82 82 Calm 30.03 1017 10 16 0.00 0.00
11:53 pm 23:53 Clear 76 24.4 71 21.7 85 85 Calm 30.02 1017 10 16 0.00 0.00

Powered by AerisWeather